Location: Concepci�n
(32.5333°N, 117.1167°W)
Time: 19:58:16
(UTC+00:00)

SL-16 R/B - Pass Details

Date: 08 May 2021
Orbit: 843 x 845 km, 71.0° (Epoch: 18 June)

Event Time Altitude Azimuth Distance (km) Brightness Sun altitude
Rises 12:11:24 0° 195° (SSW) 3,382 4.9 -9.2°
Reaches altitude 10° 12:13:50 10° 194° (SSW) 2,451 4.2 -8.8°
Maximum altitude 12:19:27 78° 109° (ESE) 864 2.4 -7.7°
Drops below altitude 10° 12:25:07 10° 23° (NNE) 2,466 5.4 -6.6°
Sets 12:27:34 0° 23° (NNE) 3,405 6.2 -6.2°
